Regional Weather Roundup
Issued by NWS

Home | Current Version | Previous Version | Text Only | Print | Product List | Glossary Off
Versions: 1 2 3 4 5 6 7 8 9 10 11 12 13 14 15 16 17 18 19 20 21 22 23 24 25 26 27 28 29 30 31 32 33 34 35 36 37 38 39 40 41 42 43 44 45 46 47 48 49 50

000
ASUS43 KDMX 221501
RWRIA

WEATHER ROUNDUP FOR IOWA
NATIONAL WEATHER SERVICE DES MOINES IA
1000 AM CDT SUN OCT 22 2017

NOTE: "FAIR" INDICATES FEW OR NO CLOUDS BELOW 12,000 FEET WITH NO
SIGNIFICANT WEATHER AND/OR OBSTRUCTIONS TO VISIBILITY.

* - THESE STATIONS ARE NOT NWS STATIONS...THUS NOT UNDER NWS
QUALITY CONTROL.  THEY ALSO DO NOT REPORT WEATHER SUCH
AS PRECIPITATION OR FOG.

IAZ001>003-012>014-020>022-031>034-043>046-221600-
   NORTHWEST IOWA

CITY           SKY/WX    TMP DP  RH WIND       PRES   REMARKS
DENISON *      SUNNY     48  41  76 SW5       30.11R
LE MARS *      SUNNY     46  39  76 SW3       30.08S
ORANGE CITY *  SUNNY     48  43  81 W8        30.07S
SHELDON *      SUNNY     46  39  76 W7        30.05F
SIOUX CITY     SUNNY     48  38  68 NW3       30.10S
SPENCER        SUNNY     50  40  68 W10       30.06R
STORM LAKE *   SUNNY     48  39  71 W9        30.08R
$$

IAZ055>058-069>071-079>083-090>094-221600-
   SOUTHWEST IOWA

CITY           SKY/WX    TMP DP  RH WIND       PRES   REMARKS
ATLANTIC *     SUNNY     50  43  76 CALM      30.11R
AUDUBON *      SUNNY     52  43  71 W5        30.10R
CLARINDA *     CLOUDY    54  43  66 NW5       30.13S
COUNCIL BLFS * SUNNY     50  41  71 W5        30.12R
CRESTON *      SUNNY     52  45  76 NW13      30.10S
HARLAN  *      SUNNY     52  43  71 W6        30.14R
LAMONI         CLOUDY    50  45  83 NW8       30.07R
RED OAK *      SUNNY     52  43  71 VRB3      30.12R
SHENANDOAH *   CLOUDY    52  43  71 CALM      30.13R
$$

IAZ047>049-059>061-072>074-084-221600-
   CENTRAL IOWA

CITY           SKY/WX    TMP DP  RH WIND       PRES   REMARKS
AMES           CLOUDY    51  44  77 NW9       30.07R
ANKENY *       CLOUDY    52  45  76 NW8       30.07R
BOONE *        PTSUNNY   48  41  76 NW9       30.06R
CHARITON *     CLOUDY    50  46  87 NW9       30.06R
DES MOINES     CLOUDY    52  43  71 NW9       30.06R
GRINNELL*      CLOUDY    50  46  87 NW7       30.05R
KNOXVILLE *    CLOUDY    50  46  87 NW9       30.04R
MARSHALLTOWN   CLOUDY    50  47  89 W8        30.04R
NEWTON *       CLOUDY    50  46  87 W12       30.06R
PELLA *        PTSUNNY   51  47  86 NW7       30.06R
$$

IAZ004>006-015-016-023>025-035-036-221600-
   NORTH CENTRAL IOWA

CITY           SKY/WX    TMP DP  RH WIND       PRES   REMARKS
ALGONA *       CLOUDY    50  41  71 W10       30.06R
CLARION *      CLOUDY    50  46  87 W8        30.06R
ESTHERVILLE    SUNNY     49  40  71 W7        30.04R
FORT DODGE *   CLOUDY    52  42  69 W6        30.07S
MASON CITY     CLOUDY    49  42  77 W9        30.05R
FOREST CITY *    N/A     50  43  76 W5        30.04R
WEBSTER CITY * CLOUDY    50  41  71 W7G14     30.05R
IOWA FALLS *     N/A     49  45  84 W8        30.06R
$$

IAZ007>011-017>019-026>030-037>042-050>054-066-221600-
   NORTHEAST IOWA

CITY           SKY/WX    TMP DP  RH WIND       PRES   REMARKS
CEDAR RAPIDS   CLOUDY    51  49  92 NW9       30.02R
CHARLES CITY *   N/A     50  46  87 W8        30.03R
CLINTON *      CLOUDY    54  51  90 NW14      29.97R
DECORAH *      CLOUDY    50  46  87 CALM      30.00R
DUBUQUE        CLOUDY    51  47  86 NW13      29.99R
MONTICELLO *   CLOUDY    52  48  87 NW7       29.99R
OELWEIN *      PTSUNNY   50  48  93 NW7       30.01S
WATERLOO       CLOUDY    49  46  90 W7        30.02R
$$

IAZ064-065-067-068-078-221600-
   EAST CENTRAL IOWA

CITY           SKY/WX    TMP DP  RH WIND       PRES   REMARKS
DAVENPORT      LGT RAIN  52  50  93 NW9       30.01R
IOWA CITY      CLOUDY    53  49  86 NW7       30.03R
MUSCATINE *    DRIZZLE   54  50  87 NW12      30.02R
QUAD CITIES    LGT RAIN  54  50  86 NW12      29.98R
$$

IAZ062-063-075>077-085>089-095>099-221600-
   SOUTHEAST IOWA

CITY           SKY/WX    TMP DP  RH WIND       PRES   REMARKS
BURLINGTON     LGT RAIN  53  51  93 NW8       30.00R
FAIRFIELD *    CLOUDY    52  48  87 NW8G14    30.05R
FORT MADISON * CLOUDY    54  52  94 NW14      30.02R
KEOKUK *       CLOUDY    54  50  87 NW13      30.00R
OSKALOOSA *    LGT RAIN  51  48  92 NW9       30.05S
OTTUMWA        CLOUDY    52  48  86 NW6       30.03S
WASHINGTON *   CLOUDY    52  50  93 NW7       30.04R
$$

ABBREVIATIONS USED IN REMARKS
   TC - TEMPERATURES IN CELSIUS
  WCI - WIND CHILL INDEX
   HX - HEAT INDEX
  VSB - VISIBILITY
$$





USA.gov is the U.S. government's official web portal to all federal, state and local government web resources and services.